[[{"header":{"parameterUnit":"m.s-1","parameterCategory":1,"la1":30.2991,"la2":30.254,"lo1":-89.0895,"lo2":-89.0444,"dy":0.0017,"dx":0.0017,"nx":28,"ny":28,"refTime":"2025-09-03T09:00:00:Z","depth":0,"parameterNumber":2,"parameterNumberName":"U-component_of_WINDS"},"data":[0,0,0,0,0,0,0,0,0,0,0,0,0,0,0,0,0,0,0,0,0,0,0,0,0,0,0,0,0,0,0,0,0,0,0,0,0,0,0,0,0,0,0,0,0,0,0,0,0,0,0,0,0,0,0,0,0,0,1.0086,1.0085,0,1.0072,1.0072,1.0072,1.0073,1.0074,1.0074,1.0074,1.0062,1.0061,1.0061,0,0,0,0,0,0,0,0,0,0,0,0,0,1.0113,1.0113,1.0086,1.0085,1.0085,1.0072,1.0072,1.0072,1.0073,1.0074,1.0074,1.0074,1.0062,1.0061,1.0061,0,0,0,0,0,0,0,0,0,0,0,0,0,1.0101,1.0113,1.0086,1.0084,1.0084,1.0072,1.0072,1.0072,1.0073,1.0074,1.0074,1.0074,1.0062,1.0061,1.0061,1.005,0,0,1.0058,1.0058,0,0,0,0,0,0,0,0,1.0101,1.01,1.0085,1.0084,1.0084,1.0075,1.0078,1.0065,1.0073,1.0077,1.0074,1.0074,1.0066,1.0065,1.0062,1.0049,1.0049,1.0058,1.0058,1.0057,1.0057,0,0,0,0,0,0,0,1.0102,1.01,1.008,1.0084,1.0084,1.0085,1.0083,1.0075,1.007,1.0077,1.0077,1.0075,1.0066,1.0062,1.0061,1.0049,1.0058,1.0057,1.0057,1.0057,1.0027,1.0026,0,0,0,0,0,0,1.0103,1.0101,1.0081,1.008,1.0094,1.0084,1.0082,1.0078,1.007,1.0069,1.0075,1.0076,1.0064,1.0062,1.0061,1.0048,1.0057,1.0057,1.0056,1.0027,1.0027,1.0026,0,0,0,0,0,0,1.0104,1.0102,1.0081,1.0091,1.0088,1.0083,1.0078,1.0077,1.0074,1.0069,1.0068,1.0073,1.0064,1.0062,1.0053,1.0048,1.0056,1.0056,1.0028,1.0027,1.0027,1.0022,0,0,0,0,0,0,1.0105,1.0102,1.0097,1.009,1.0088,1.0073,1.0077,1.0077,1.0072,1.0073,1.0066,1.0065,1.0064,1.0054,1.0052,1.0047,1.0055,1.0028,1.0027,1.0027,1.0022,1.0021,1.002,0,0,0,0,0,1.0106,1.0097,1.0097,1.0095,1.0082,1.0072,1.0071,1.0069,1.0072,1.0068,1.0064,1.0066,1.0048,1.0053,1.0051,1.0045,1.0028,1.0027,1.0027,1.0023,1.0021,1.002,0,0,0,0,0,0,1.0103,1.0096,1.0096,1.0084,1.0079,1.0073,1.0067,1.0067,1.0061,1.0062,1.006,1.0059,1.0049,1.0046,1.0051,1.0034,1.0039,1.0038,1.0037,1.0035,1.0034,1.0035,1.0054,0,0,0,0,0,1.0102,1.0094,1.0088,1.0078,1.0076,1.0072,1.0068,1.0067,1.0061,1.0059,1.0055,1.005,1.0044,1.0039,1.0033,1.0022,1.0021,1.0017,1.0016,1.0015,1.0014,1.0008,1.0007,1.0024,1.0024,1.0024,0,0,1.0098,1.0093,1.0088,1.0078,1.0074,1.0066,1.007,1.0062,1.0057,1.0058,1.0048,1.0046,1.004,1.0029,1.0025,1.0027,1.0009,1.0014,1.0014,1.0013,1.0007,1.0006,1.0004,1.0023,1.0023,1.0024,0,0,1.0087,1.0082,1.0074,1.0069,1.0062,1.006,1.0058,1.0051,1.0049,1.004,1.0041,1.0035,1.0023,1.0019,1.0016,1.0003,1.0004,1.0001,0.9996,0.999,0.9989,0.9987,0.9983,0.9981,1.0,1.0,1.0,0,1.0083,1.0071,1.0069,1.0061,1.0057,1.0057,1.0049,1.0045,1.0037,1.0034,1.0036,1.0022,1.0018,1.0007,1.0004,1.0001,0.9999,1.0002,0.9989,0.9988,0.9986,0.9982,0.9981,1.0,1.0,1.0,1.0,0,1.0067,1.0059,1.0053,1.0045,1.004,1.0032,1.0029,1.0024,1.0023,1.0021,1.0011,1.0007,1.0,0.9997,0.9997,0.9986,0.9987,0.9989,0.9993,0.9985,0.998,0.9979,1.0,1.0,1.0,1.0,0,0,1.0054,1.0045,1.0042,1.0039,1.0031,1.0025,1.0018,1.001,1.0006,1.0001,0.9994,0.9985,0.9986,0.9982,0.9982,0.9977,0.9967,0.9979,0.9979,0.9977,0.9955,0.9953,0.9951,0.9968,0.9967,0.9967,0.9955,0,1.0042,1.0028,1.0026,1.0013,1.0006,1.0006,0.9999,0.9994,0.9992,0.9986,0.9983,0.9976,0.998,0.9977,0.9972,0.9969,0.9963,0.997,0.9962,0.9961,0.9963,0.9949,0.9947,0.9936,0.9954,0.9953,0.9953,0,1.0027,1.002,1.0007,1.0,0.9997,0.9991,0.9984,0.9978,0.9973,0.9971,0.9967,0.9967,0.9959,0.9964,0.9953,0.9958,0.9955,0.9953,0.9952,0.9951,0.9957,0.9947,0.9932,0.9931,0.9951,0.9951,0.9951,0,1.0018,1.0006,0.9997,0.9994,0.9986,0.9982,0.9978,0.9973,0.9969,0.9963,0.996,0.9954,0.995,0.9945,0.9944,0.9947,0.9933,0.9938,0.9932,0.9932,0.9928,0.9928,0.9912,0.9927,0.9927,0.9927,0.9927,0,1.0005,0.9997,0.9993,0.9987,0.9978,0.9976,0.9967,0.9964,0.9959,0.9953,0.9953,0.9947,0.9945,0.9939,0.9938,0.9929,0.9928,0.9927,0.9926,0.9926,0.9926,0.9924,0.9924,0.9926,0.9926,0.9926,0.9926,0,0.9994,0.9991,0.9981,0.9975,0.9973,0.9966,0.9961,0.9956,0.9953,0.9945,0.9943,0.994,0.9933,0.993,0.9922,0.9921,0.9911,0.9911,0.9912,0.9912,0.9906,0.9907,0.9888,0.9885,0.9901,0.9901,0.9901,0,0.9986,0.998,0.9973,0.9968,0.9965,0.9958,0.9953,0.9951,0.9947,0.994,0.9935,0.9928,0.9922,0.9911,0.9908,0.9901,0.9902,0.9895,0.9901,0.9901,0.9901,0.9902,0.9901,0.9894,0.9894,0.9894,0.9894,0,0.9972,0.9971,0.9964,0.9957,0.9951,0.9946,0.994,0.9937,0.9934,0.9929,0.9921,0.9917,0.9908,0.9901,0.9895,0.9892,0.9892,0.9892,0.9891,0.989,0.9891,0.989,0.9909,0.9893,0.9893,0.9893,0.9893,0.9893,0.9962,0.9956,0.995,0.9943,0.9938,0.9933,0.9928,0.9925,0.9918,0.9911,0.991,0.9902,0.9897,0.9888,0.9885,0.9879,0.9881,0.9878,0.9877,0.9877,0.9876,0.9892,0.9878,0.9878,0.9878,0.9878,0.9878,0,0.9947,0.9943,0.9937,0.9929,0.9923,0.9924,0.9918,0.9913,0.9906,0.9901,0.9895,0.9887,0.988,0.9876,0.987,0.9865,0.9866,0.9864,0.9864,0.9863,0.9875,0.9877,0.9864,0.9864,0.9864,0.9864,0.9864,0.9864,0.9939,0.9929,0.9927,0.9916,0.9912,0.9904,0.99,0.9896,0.9892,0.9882,0.9876,0.9874,0.9869,0.9862,0.9856,0.9855,0.9853,0.9851,0.985,0.9861,0.9862,0.9864,0.9866,0.985,0.985,0.9839,0.9839,0.9838]},{"header":{"parameterUnit":"m.s-1","parameterCategory":1,"la1":30.2991,"la2":30.254,"lo1":-89.0895,"lo2":-89.0444,"dy":0.0017,"dx":0.0017,"nx":28,"ny":28,"refTime":"2025-09-03T09:00:00:Z","depth":0,"parameterNumber":3,"parameterNumberName":"V-component_of_WINDS"},"data":[0,0,0,0,0,0,0,0,0,0,0,0,0,0,0,0,0,0,0,0,0,0,0,0,0,0,0,0,0,0,0,0,0,0,0,0,0,0,0,0,0,0,0,0,0,0,0,0,0,0,0,0,0,0,0,0,0,0,2.3731,2.3731,0,2.3704,2.3704,2.3704,2.3717,2.3718,2.3718,2.3719,2.3687,2.3686,2.3684,0,0,0,0,0,0,0,0,0,0,0,0,0,2.3788,2.3787,2.3731,2.3731,2.373,2.3705,2.3704,2.3704,2.3717,2.3718,2.3718,2.3719,2.3688,2.3686,2.3684,0,0,0,0,0,0,0,0,0,0,0,0,0,2.3762,2.3786,2.3731,2.3734,2.3734,2.3705,2.3704,2.3704,2.3717,2.3718,2.3719,2.372,2.3688,2.3686,2.3684,2.3649,0,0,2.3677,2.3676,0,0,0,0,0,0,0,0,2.3764,2.376,2.3734,2.3734,2.3733,2.3715,2.3713,2.3685,2.3716,2.3723,2.3719,2.372,2.3695,2.3693,2.3685,2.3648,2.3646,2.3677,2.3676,2.3675,2.3674,0,0,0,0,0,0,0,2.3765,2.3761,2.372,2.3733,2.3733,2.3735,2.3732,2.3707,2.3703,2.3722,2.3723,2.372,2.3695,2.3687,2.3685,2.3646,2.3677,2.3675,2.3674,2.3673,2.3576,2.3575,0,0,0,0,0,0,2.3768,2.3763,2.3721,2.372,2.3752,2.3733,2.373,2.372,2.3704,2.3702,2.3719,2.3721,2.3691,2.3687,2.3683,2.364,2.3675,2.3672,2.3671,2.3577,2.3576,2.3574,0,0,0,0,0,0,2.3769,2.3764,2.3722,2.3741,2.3736,2.3731,2.3719,2.3719,2.3711,2.3702,2.37,2.3712,2.3691,2.3687,2.3657,2.3639,2.3671,2.3669,2.3579,2.3577,2.3575,2.3554,0,0,0,0,0,0,2.3771,2.3764,2.3752,2.3741,2.3735,2.3698,2.3718,2.3718,2.3707,2.3709,2.3694,2.3693,2.3692,2.3661,2.3655,2.3637,2.3668,2.358,2.3578,2.3576,2.3556,2.3551,2.3547,0,0,0,0,0,2.3773,2.3747,2.3752,2.3746,2.372,2.3697,2.3693,2.3694,2.3706,2.3693,2.3687,2.3693,2.3642,2.3658,2.3651,2.3632,2.3581,2.3578,2.3576,2.3558,2.3552,2.3547,0,0,0,0,0,0,2.3754,2.3745,2.3751,2.3721,2.371,2.3699,2.3683,2.3688,2.3672,2.3675,2.3675,2.3671,2.364,2.3634,2.3651,2.3596,2.3613,2.3609,2.3602,2.3596,2.3592,2.3594,2.3666,0,0,0,0,0,2.3747,2.3731,2.3723,2.3697,2.3692,2.3688,2.3678,2.368,2.3667,2.3662,2.3654,2.3641,2.3622,2.3609,2.3591,2.3556,2.3551,2.3539,2.3535,2.3531,2.3527,2.3505,2.3499,2.3565,2.3565,2.3565,0,0,2.3732,2.3725,2.3714,2.3694,2.3685,2.3666,2.3684,2.3664,2.3649,2.3659,2.3631,2.3624,2.3609,2.3576,2.3561,2.3569,2.3508,2.3528,2.3525,2.3523,2.3502,2.3496,2.349,2.3563,2.3564,2.3564,0,0,2.3693,2.3687,2.3664,2.3656,2.3643,2.3641,2.3635,2.3624,2.362,2.3593,2.3599,2.3581,2.3549,2.3537,2.3527,2.3483,2.3488,2.3477,2.3454,2.3433,2.3428,2.3423,2.3405,2.3399,2.3474,2.3474,2.3473,0,2.3675,2.3648,2.3651,2.363,2.362,2.363,2.3605,2.3596,2.3578,2.357,2.358,2.3538,2.3529,2.3492,2.3482,2.3474,2.3466,2.3478,2.3429,2.3424,2.342,2.3403,2.3396,2.3472,2.3472,2.3472,2.3473,0,2.3625,2.3606,2.3589,2.3572,2.356,2.3537,2.3535,2.3523,2.3525,2.3521,2.3491,2.3481,2.346,2.3452,2.3454,2.3415,2.342,2.3429,2.3446,2.3412,2.3396,2.3389,2.347,2.3471,2.3471,2.3471,0,0,2.3573,2.3559,2.3552,2.3544,2.3531,2.3515,2.3492,2.3473,2.3461,2.3448,2.3427,2.3399,2.3408,2.3396,2.3397,2.3378,2.3342,2.339,2.3389,2.3379,2.3295,2.3287,2.3279,2.3346,2.3345,2.3344,2.3296,0,2.3532,2.3493,2.3495,2.3458,2.3439,2.3448,2.3428,2.3416,2.3412,2.3394,2.3389,2.3368,2.3382,2.3375,2.3357,2.335,2.3325,2.3354,2.3324,2.3322,2.3325,2.3271,2.3263,2.3218,2.329,2.3289,2.3288,0,2.3479,2.3465,2.3426,2.3415,2.3407,2.3389,2.337,2.3354,2.334,2.3338,2.3325,2.3329,2.3303,2.3322,2.3285,2.3305,2.3293,2.3287,2.3285,2.3281,2.3302,2.3263,2.3204,2.3197,2.3279,2.3279,2.328,0,2.3442,2.3414,2.3387,2.338,2.3366,2.3353,2.3346,2.3334,2.3322,2.3305,2.3297,2.3278,2.3266,2.325,2.3247,2.3262,2.3209,2.3229,2.3204,2.3204,2.3191,2.3192,2.3127,2.3187,2.3187,2.3188,2.3188,0,2.3395,2.337,2.337,2.3353,2.3325,2.3327,2.3298,2.3293,2.3281,2.3262,2.3268,2.3249,2.3248,2.3227,2.3225,2.3193,2.3189,2.3185,2.3184,2.3183,2.3183,2.3173,2.3175,2.3186,2.3186,2.3187,2.3187,0,2.3349,2.3348,2.3318,2.3308,2.3305,2.3284,2.3274,2.3257,2.3254,2.3229,2.3223,2.3216,2.3193,2.3189,2.3161,2.3159,2.3121,2.3124,2.3126,2.3125,2.3101,2.3102,2.3026,2.3015,2.3084,2.3083,2.3083,0,2.3318,2.3299,2.3287,2.3275,2.3268,2.3249,2.3237,2.3238,2.3224,2.3207,2.3191,2.3169,2.315,2.3112,2.3104,2.3082,2.3083,2.3058,2.308,2.3079,2.308,2.308,2.3077,2.3053,2.3052,2.3052,2.3051,0,2.3262,2.3262,2.3246,2.3228,2.3214,2.32,2.3186,2.3176,2.3175,2.3159,2.3136,2.3122,2.3094,2.307,2.3048,2.3039,2.3044,2.3045,2.3038,2.3035,2.3036,2.3033,2.3112,2.3046,2.3047,2.3047,2.3047,2.3047,2.3221,2.3204,2.3192,2.3173,2.3163,2.315,2.3133,2.3128,2.3109,2.3087,2.3089,2.3062,2.3047,2.3019,2.3009,2.2986,2.2994,2.2985,2.2982,2.2979,2.2975,2.3041,2.2983,2.2983,2.2983,2.2983,2.2983,0,2.3163,2.3156,2.3139,2.312,2.3104,2.3113,2.3098,2.3083,2.3061,2.3047,2.303,2.3002,2.2979,2.2969,2.2946,2.293,2.2931,2.2924,2.2924,2.2921,2.2971,2.2978,2.2923,2.2923,2.2923,2.2923,2.2923,2.2923,2.3131,2.3102,2.3101,2.3067,2.306,2.3035,2.3026,2.3013,2.3003,2.2972,2.2953,2.2948,2.2935,2.2911,2.2889,2.2887,2.2877,2.2868,2.2866,2.2912,2.2918,2.2924,2.293,2.2866,2.2866,2.2818,2.2817,2.2817]}]]